TIME,DELAY(SENSOR),PRES,T(CTD),SAL,OXYGEN,RAWTEMP,T(OPTODE),TCPHASE,TURBIDITY,TURBIDITY_GAIN,FLUOR,BETA,CDOM,ED411.5,ED443.8,ED489.6,PAR,COMP,TILT,TILTY(TILT),CHECK
1340671967,6469,145.7799987792968800,6.2432999610900880,34.8148994445800800,351.1296997070312500,613.6190185546875000,6.2255969047546390,32.0908584594726560,16,3,48,114,61,2147633311,2147395131,2147280776,2148321073,2833,1,-4,7784
1340672028,6469,143.1000061035156200,6.2486000061035160,34.8128013610839840,350.7633056640625000,613.4409179687500000,6.2313208580017090,32.0997581481933600,15,3,50,115,62,2147636292,2147394669,2147279112,2148319172,2402,2,-4,53812
1340672092,6467,140.3099975585937500,6.2653999328613280,34.8087005615234400,350.8476867675781000,612.9500122070312000,6.2470870018005370,32.0886917114257800,16,3,50,115,62,2147638175,2147393225,2147278098,2148318788,2153,0,-4,55759
1340672153,6469,137.6699981689453000,6.2758002281188965,34.8068008422851560,351.3245849609375000,612.6433715820312000,6.2569370269775390,32.0677909851074200,16,3,50,113,62,2147637507,2147394353,2147276539,2148317969,1871,0,-4,30822
1340672216,6467,134.9100036621093800,6.2796001434326170,34.8050003051757800,351.7536010742187500,612.4951171875000000,6.2617001533508300,32.0510406494140600,16,3,50,116,62,2147634691,2147393458,2147278696,2148322691,1456,2,-4,60260
1340672277,6466,132.1600036621093800,6.2822999954223630,34.8041000366210940,351.7974853515625000,612.3958129882812000,6.2648868560791020,32.0479202270507800,15,3,50,118,62,2147634185,2147393658,2147276703,2148320250,1140,0,-4,9163
1340672340,6468,129.2299957275390600,6.2884001731872560,34.8026008605957000,351.8449096679687500,612.2138061523438000,6.2707309722900390,32.0432090759277340,16,3,51,119,63,2147635404,2147394458,2147275606,2148320118,861,0,-4,34830
1340672401,6469,126.3499984741211000,6.3000998497009280,34.7983016967773440,351.6268920898437500,611.8001708984375000,6.2840118408203125,32.0432701110839840,16,3,50,121,63,2147637347,2147392927,2147279080,2148316804,323,2,-4,346
1340672465,6469,123.1900024414062500,6.3102002143859860,34.7963981628418000,351.7992858886719000,611.5651245117188000,6.2915611267089840,32.0335807800293000,16,3,51,120,62,2147639917,2147394047,2147278495,2148318856,3304,2,-4,61766
1340672526,6444,120.1100006103515600,6.3231000900268555,34.7944984436035160,351.7867126464844000,611.1947021484375000,6.3034520149230960,32.0277214050293000,16,3,50,118,62,2147636864,2147392392,2147276374,2148318568,3039,0,-4,6548
1340672589,6468,116.8499984741211000,6.3369998931884770,34.7928009033203100,351.1492004394531000,610.7540283203125000,6.3175959587097170,32.0412406921386700,16,3,52,122,63,2147636972,2147392054,2147277380,2148317526,2755,0,-4,31439
1340672650,6468,113.6999969482421900,6.3590002059936520,34.7874984741210940,350.8245849609375000,610.0026245117188000,6.3417129516601560,32.0388908386230500,16,3,54,125,62,2147639336,2147395977,2147279889,2148317311,2471,1,-4,5399
1340672713,6466,110.4800033569336000,6.3755998611450195,34.7845993041992200,351.6895141601562500,609.5458984375000000,6.3563671112060550,32.0027389526367200,16,3,54,122,62,2147636808,2147392429,2147277586,2148319126,2304,1,-4,13569
1340672774,6467,107.2900009155273400,6.3923997879028320,34.7823982238769500,351.7070922851562500,609.0349731445312000,6.3727569580078125,31.9934997558593750,16,3,56,129,62,2147634596,2147393960,2147278376,2148318550,2281,1,-4,63791
1340672837,6467,103.9300003051757800,6.4078998565673830,34.7802009582519500,352.9301147460937500,608.5469970703125000,6.3884119987487790,31.9454002380371100,16,3,58,128,62,2147638989,2147392584,2147277083,2148318477,1997,1,-4,31242
1340672898,6466,100.5699996948242200,6.4169998168945310,34.7790985107421900,353.2117919921875000,608.2202148437500000,6.3988928794860840,31.9306106567382800,17,3,57,126,62,2147640497,2147393580,2147278687,2148316731,1835,0,-4,63163
1340672962,6466,96.9700012207031200,6.4306998252868650,34.7765007019043000,352.7658081054687500,607.8350830078125000,6.4112429618835450,31.9384193420410160,16,3,57,127,62,2147639066,2147393439,2147277997,2148316950,1755,2,-4,42183
1340673023,6468,93.4899978637695300,6.4397997856140140,34.7751998901367200,352.3887939453125000,607.5275268554688000,6.4211077690124510,31.9457206726074220,15,3,60,127,62,2147635505,2147391826,2147277279,2148317576,1581,0,-4,46794
1340673087,6469,89.8300018310546900,6.4538998603820800,34.7732009887695300,352.2815856933594000,607.1104125976562000,6.4344840049743650,31.9420795440673830,16,3,61,123,62,2147640068,2147391263,2147275858,2148320776,1283,2,-4,38666
1340673148,6468,86.3000030517578100,6.4601001739501950,34.7731018066406250,352.1943054199219000,606.8660888671875000,6.4423141479492190,31.9405403137207030,13,3,61,122,62,2147640114,2147393041,2147275656,2148316050,917,0,-4,2924
1340673212,6467,82.5699996948242200,6.4693999290466310,34.7714996337890600,352.8286132812500000,606.5435180664062000,6.4526581764221190,31.9145908355712900,13,3,64,128,62,2147638161,2147394367,2147278705,2148319387,594,0,-4,15807
1340673273,6466,79.0699996948242200,6.5027999877929690,34.7694015502929700,352.6250915527344000,605.5343017578125000,6.4850029945373535,31.9038696289062500,16,3,66,128,62,2147637654,2147390852,2147277631,2148319583,3445,0,-4,60362
1340673337,6467,75.4899978637695300,6.5251998901367190,34.7663993835449200,353.5252075195312500,604.9274291992188000,6.5044479370117190,31.8643302917480470,15,3,72,136,62,2147635697,2147391570,2147274505,2148318998,3031,0,-4,50589
1340673399,6467,72.1900024414062500,6.5500001907348630,34.7653999328613300,353.7999877929687500,604.1292724609375000,6.5300178527832030,31.8420600891113280,16,3,75,135,62,2147639583,2147389699,2147275547,2148318198,2637,0,-4,27195
1340673463,6466,68.9800033569336000,6.6013998985290530,34.7627983093261700,352.9321899414062500,602.5980834960938000,6.5790538787841800,31.8443107604980470,15,3,78,136,62,2147639419,2147392538,2147277892,2148317599,2664,0,-4,55641
1340673524,6468,66.1500015258789000,6.6230998039245605,34.7626991271972660,352.9465026855469000,601.7750854492188000,6.6054039001464840,31.8299503326416000,16,3,82,130,62,2147639090,2147395341,2147273535,2148316808,2452,0,-4,13601
1340673588,6467,63.4500007629394500,6.6803998947143555,34.7602996826171900,352.8764953613281000,600.2822875976562000,6.6531767845153810,31.8067893981933600,16,3,93,142,62,2147635496,2147389384,2147277403,2148317216,2093,0,-4,48581
1340673649,6468,61.3100013732910160,6.7505002021789550,34.7603988647460940,352.3167114257812500,598.3234863281250000,6.7158322334289550,31.7922401428222660,16,3,96,140,63,2147636191,2147390660,2147278445,2148318678,1861,2,-4,57942
1340673739,6468,57.9399986267089840,6.8312001228332520,34.7631988525390600,349.6792907714844000,595.2131958007812000,6.8152470588684080,31.8260002136230470,16,3,94,146,64,2147639163,2147392918,2147276474,2148320420,1406,0,-4,34360
1340673800,6471,55.0200004577636700,6.8741002082824710,34.7566986083984400,349.6751098632812500,593.3684082031250000,6.8741660118103030,31.7952194213867200,17,3,113,153,62,2147638225,2147391350,2147273993,2148318491,1018,1,-4,40961
1340673864,6468,52.1800003051757800,7.1050000190734860,34.7601013183593750,348.4208068847656000,587.2229003906250000,7.0702190399169920,31.7334899902343750,21,3,120,160,63,2147634144,2147392704,2147275926,2148317292,854,1,-4,22619
1340673925,6470,49.7299995422363300,7.2376999855041500,34.7606010437011700,349.4768981933594000,582.6301269531250000,7.2165088653564450,31.6229705810546880,19,3,117,168,63,2147636237,2147394129,2147276584,2148318207,3567,2,-4,57049
1340673989,6468,47.2200012207031250,7.5999999046325680,34.7529983520507800,350.7094116210937500,572.5482788085938000,7.5369658470153810,31.4172306060791000,22,3,151,184,62,2147638687,2147392667,2147274971,2148316835,3256,2,-4,16124
1340674051,6468,44.6399993896484400,7.8067998886108400,34.7570991516113300,352.3963012695312500,567.1940917968750000,7.7067871093750000,31.2759399414062500,23,3,152,198,62,2147637321,2147391547,2147272877,2148315628,2304,0,-4,48361
1340674115,6469,41.8800010681152340,8.2497997283935550,34.7220001220703100,349.4393920898437500,551.8577880859375000,8.1918430328369140,31.1251697540283200,30,3,157,223,62,2147637019,2147392717,2147271720,2148315286,2599,0,-4,53885
1340674176,6470,39.2000007629394500,8.4107999801635740,34.7074012756347660,345.3645935058594000,545.9141845703125000,8.3792982101440430,31.1633491516113280,36,3,152,208,66,2147639962,2147389576,2147270938,2148316790,2390,2,-4,5445
1340674240,6470,36.4500007629394500,8.6122999191284180,34.7016983032226560,342.6387939453125000,539.7280273437500000,8.5740947723388670,31.1550102233886720,29,3,191,219,64,2147638888,2147391496,2147270993,2148317151,2251,2,-4,15706
1340674301,6470,34.3899993896484400,8.8858995437622070,34.6879997253418000,340.8131103515625000,535.2702026367188000,8.7142772674560550,31.1452598571777340,28,3,211,229,64,2147638335,2147390943,2147270504,2148312813,1237,0,-4,27798
1340674391,6471,31.4899997711181640,9.3247995376586910,34.6882019042968750,337.6173095703125000,518.8023071289062000,9.2307920455932620,30.9953193664550780,69,3,1316,604,66,2147636653,2147392538,2147270847,2148316146,117,2,-4,13485
1340674452,6471,28.9200000762939450,9.6934995651245120,34.6829986572265600,336.9619140625000000,508.4042053222656000,9.5558786392211910,30.8572998046875000,111,3,1019,478,66,2147639044,2147392182,2147267172,2148312045,2146,0,-4,57118
1340674543,6469,24.4799995422363280,10.0967998504638670,34.6982002258300800,340.8544921875000000,489.7809143066406000,10.1361904144287110,30.4471492767334000,83,3,767,676,66,2147640978,2147388905,2147266874,2148311761,2143,0,-5,57587
1340674604,6468,20.8799991607666000,10.3906002044677730,34.6875000000000000,347.4483947753906000,482.4598999023437500,10.3636703491210940,30.1250495910644530,67,3,840,453,68,2147636082,2147389434,2147263067,2148311386,1649,2,-4,36576
1340674668,6470,17.7600002288818360,11.5607995986938480,34.6926994323730500,350.6523132324219000,449.4554138183594000,11.3849697113037110,29.5442695617675780,87,3,664,503,67,2147636539,2147387958,2147263642,2148310120,1959,1,-5,30440
1340674730,6470,16.4099998474121100,11.7714004516601560,34.7081985473632800,355.1411132812500000,438.1593933105469000,11.7330503463745120,29.2445907592773440,82,3,644,537,67,2147637320,2147387606,2147263300,2148309069,2768,0,-4,3789
1340674832,6469,13.6800003051757810,12.2496004104614260,34.7207984924316400,357.2495117187500000,420.8635864257812500,12.2646799087524410,28.9384803771972660,96,3,681,666,65,2147639387,2147387405,2147257933,2148307638,2659,1,-5,10699
1340674894,6472,11.0500001907348630,12.9215002059936520,34.7137985229492200,350.8236999511719000,400.6239013671875000,12.8849201202392580,28.8570098876953120,102,3,724,527,63,2147637517,2147385700,2147256667,2148308566,2902,-1,-5,24672
1340674974,6471,7.1199998855590820,12.9195995330810550,34.7196998596191400,348.7272949218750000,399.5846862792969000,12.9167203903198240,28.9078998565673830,102,3,714,555,62,2147637996,2147384200,2147254609,2148307547,3200,3,-8,58908
1340675038,6469,3.0899999141693115,12.9221000671386720,34.7200012207031250,348.0704956054687500,399.4349060058594000,12.9212999343872070,28.9263191223144530,113,3,715,528,62,2147637219,2147382797,2147255556,2148307149,2590,13,-13,31417
1340675088,6469,0.4000000059604645,0.0000000000000000,0.0000000000000000,348.2153015136719000,399.4067077636719000,12.9221601486206050,28.9213905334472660,104,3,687,558,62,2147638445,2147381850,2147253741,2148304118,3353,5,-14,34352
